Time,TemperatureF,DewpointF,PressureIn,WindDirection,WindDirectionDegrees,WindSpeedMPH,WindSpeedGustMPH,Humidity,HourlyPrecipIn,Conditions,Clouds,dailyrainin,SoftwareType,DateUTC
2013-08-10 00:02:00,66.9,66.0,29.76,ESE,114,0.0,2.0,97,0.00,,,0.00,weatherlink.com 1.10,2013-08-10 04:02:00,
2013-08-10 00:17:00,66.6,66.0,29.76,East,101,4.0,4.0,97,0.00,,,0.00,weatherlink.com 1.10,2013-08-10 04:17:00,
2013-08-10 00:32:00,66.1,65.0,29.76,SSE,147,0.0,5.0,96,0.00,,,0.00,weatherlink.com 1.10,2013-08-10 04:32:00,
2013-08-10 00:47:00,65.6,65.0,29.77,West,281,0.0,1.0,96,0.00,,,0.00,weatherlink.com 1.10,2013-08-10 04:47:00,
2013-08-10 01:02:00,65.3,64.0,29.77,East,101,0.0,2.0,96,0.00,,,0.00,weatherlink.com 1.10,2013-08-10 05:02:00,
2013-08-10 01:17:00,64.6,64.0,29.77,ENE,63,0.0,1.0,96,0.00,,,0.00,weatherlink.com 1.10,2013-08-10 05:17:00,
2013-08-10 01:32:00,63.7,63.0,29.77,NE,35,0.0,1.0,96,0.00,,,0.00,weatherlink.com 1.10,2013-08-10 05:32:00,
2013-08-10 01:47:00,63.5,62.0,29.78,NE,35,0.0,0.0,96,0.00,,,0.00,weatherlink.com 1.10,2013-08-10 05:47:00,
2013-08-10 02:02:00,63.0,62.0,29.78,NE,35,0.0,1.0,96,0.00,,,0.00,weatherlink.com 1.10,2013-08-10 06:02:00,
2013-08-10 02:17:00,62.5,61.0,29.79,WNW,302,0.0,2.0,96,0.00,,,0.00,weatherlink.com 1.10,2013-08-10 06:17:00,
2013-08-10 02:32:00,62.3,61.0,29.79,ESE,114,0.0,1.0,96,0.00,,,0.00,weatherlink.com 1.10,2013-08-10 06:32:00,
2013-08-10 02:47:00,62.2,61.0,29.79,ESE,120,0.0,1.0,95,0.00,,,0.00,weatherlink.com 1.10,2013-08-10 06:47:00,
2013-08-10 03:02:00,62.0,60.0,29.80,East,96,0.0,1.0,93,0.00,,,0.00,weatherlink.com 1.10,2013-08-10 07:02:00,
2013-08-10 03:17:00,61.8,60.0,29.80,East,96,1.0,1.0,93,0.00,,,0.00,weatherlink.com 1.10,2013-08-10 07:17:00,
2013-08-10 03:33:00,61.5,60.0,29.80,ESE,108,0.0,1.0,94,0.00,,,0.00,weatherlink.com 1.10,2013-08-10 07:33:00,
2013-08-10 03:48:00,60.9,59.0,29.81,NNW,346,0.0,1.0,94,0.00,,,0.00,weatherlink.com 1.10,2013-08-10 07:48:00,
2013-08-10 04:03:00,60.3,58.0,29.81,NE,43,0.0,3.0,93,0.00,,,0.00,weatherlink.com 1.10,2013-08-10 08:03:00,
2013-08-10 04:18:00,60.0,57.0,29.81,East,99,0.0,1.0,91,0.00,,,0.00,weatherlink.com 1.10,2013-08-10 08:18:00,
2013-08-10 04:33:00,59.5,56.0,29.82,ESE,114,1.0,1.0,88,0.00,,,0.00,weatherlink.com 1.10,2013-08-10 08:33:00,
2013-08-10 04:48:00,59.3,56.0,29.82,ESE,120,1.0,2.0,89,0.00,,,0.00,weatherlink.com 1.10,2013-08-10 08:48:00,
2013-08-10 05:03:00,59.0,56.0,29.82,SE,129,0.0,1.0,90,0.00,,,0.00,weatherlink.com 1.10,2013-08-10 09:03:00,
2013-08-10 05:18:00,58.4,55.0,29.82,SE,128,0.0,1.0,88,0.00,,,0.00,weatherlink.com 1.10,2013-08-10 09:18:00,
2013-08-10 05:34:00,58.3,55.0,29.82,ESE,110,1.0,1.0,88,0.00,,,0.00,weatherlink.com 1.10,2013-08-10 09:34:00,
2013-08-10 05:48:00,58.4,55.0,29.83,SE,125,0.0,2.0,87,0.00,,,0.00,weatherlink.com 1.10,2013-08-10 09:48:00,
2013-08-10 06:03:00,58.2,56.0,29.83,NE,49,0.0,1.0,91,0.00,,,0.00,weatherlink.com 1.10,2013-08-10 10:03:00,
2013-08-10 06:18:00,56.9,55.0,29.83,NE,49,0.0,2.0,93,0.00,,,0.00,weatherlink.com 1.10,2013-08-10 10:18:00,
2013-08-10 06:33:00,56.8,55.0,29.83,ENE,57,0.0,1.0,94,0.00,,,0.00,weatherlink.com 1.10,2013-08-10 10:33:00,
2013-08-10 06:48:00,56.9,55.0,29.84,NW,311,1.0,2.0,93,0.00,,,0.00,weatherlink.com 1.10,2013-08-10 10:48:00,
2013-08-10 07:03:00,57.0,55.0,29.84,NW,311,0.0,0.0,93,0.00,,,0.00,weatherlink.com 1.10,2013-08-10 11:03:00,
2013-08-10 07:18:00,58.2,55.0,29.85,North,357,0.0,1.0,90,0.00,,,0.00,weatherlink.com 1.10,2013-08-10 11:18:00,
2013-08-10 07:33:00,59.3,56.0,29.85,NNW,333,0.0,3.0,87,0.00,,,0.00,weatherlink.com 1.10,2013-08-10 11:33:00,
2013-08-10 07:48:00,59.4,56.0,29.85,NNE,12,1.0,5.0,87,0.00,,,0.00,weatherlink.com 1.10,2013-08-10 11:48:00,
2013-08-10 08:03:00,59.3,55.0,29.86,SSW,210,3.0,10.0,86,0.00,,,0.00,weatherlink.com 1.10,2013-08-10 12:03:00,
2013-08-10 08:18:00,59.3,56.0,29.86,WNW,286,1.0,16.0,88,0.00,,,0.00,weatherlink.com 1.10,2013-08-10 12:18:00,
2013-08-10 08:33:00,59.5,56.0,29.86,WSW,246,1.0,5.0,87,0.00,,,0.00,weatherlink.com 1.10,2013-08-10 12:33:00,
2013-08-10 08:48:00,60.0,56.0,29.86,North,5,5.0,11.0,85,0.00,,,0.00,weatherlink.com 1.10,2013-08-10 12:48:00,
2013-08-10 09:03:00,60.3,55.0,29.86,West,281,1.0,10.0,83,0.00,,,0.00,weatherlink.com 1.10,2013-08-10 13:03:00,
2013-08-10 09:18:00,60.2,55.0,29.87,NNW,333,3.0,11.0,83,0.00,,,0.00,weatherlink.com 1.10,2013-08-10 13:18:00,
2013-08-10 09:33:00,59.8,54.0,29.87,NE,44,2.0,11.0,82,0.00,,,0.00,weatherlink.com 1.10,2013-08-10 13:33:00,
2013-08-10 09:48:00,60.0,55.0,29.88,NE,39,1.0,9.0,84,0.00,,,0.00,weatherlink.com 1.10,2013-08-10 13:48:00,
2013-08-10 10:03:00,60.1,53.0,29.88,NW,304,4.0,9.0,78,0.00,,,0.00,weatherlink.com 1.10,2013-08-10 14:03:00,
2013-08-10 10:18:00,60.0,54.0,29.88,West,273,0.0,11.0,80,0.00,,,0.00,weatherlink.com 1.10,2013-08-10 14:18:00,
2013-08-10 10:33:00,60.7,53.0,29.89,NW,326,3.0,8.0,75,0.00,,,0.00,weatherlink.com 1.10,2013-08-10 14:33:00,
2013-08-10 10:48:00,61.7,53.0,29.89,NW,309,3.0,8.0,72,0.00,,,0.00,weatherlink.com 1.10,2013-08-10 14:48:00,
2013-08-10 11:03:00,63.0,55.0,29.90,NW,313,0.0,5.0,75,0.00,,,0.00,weatherlink.com 1.10,2013-08-10 15:03:00,
2013-08-10 11:18:00,63.1,54.0,29.90,WNW,284,2.0,11.0,71,0.00,,,0.00,weatherlink.com 1.10,2013-08-10 15:18:00,
2013-08-10 11:34:00,63.8,53.0,29.90,WNW,290,1.0,7.0,68,0.00,,,0.00,weatherlink.com 1.10,2013-08-10 15:34:00,
2013-08-10 11:49:00,64.6,54.0,29.90,SSE,160,0.0,2.0,68,0.00,,,0.00,weatherlink.com 1.10,2013-08-10 15:49:00,
2013-08-10 12:04:00,64.0,52.0,29.91,WNW,294,0.0,7.0,65,0.00,,,0.00,weatherlink.com 1.10,2013-08-10 16:04:00,
2013-08-10 12:19:00,64.3,51.0,29.91,North,6,6.0,12.0,63,0.00,,,0.00,weatherlink.com 1.10,2013-08-10 16:19:00,
2013-08-10 12:34:00,65.0,54.0,29.91,NNE,30,1.0,4.0,67,0.00,,,0.00,weatherlink.com 1.10,2013-08-10 16:34:00,
2013-08-10 12:49:00,65.1,53.0,29.90,WNW,297,6.0,7.0,64,0.00,,,0.00,weatherlink.com 1.10,2013-08-10 16:49:00,
2013-08-10 13:04:00,65.6,54.0,29.91,WNW,292,0.0,7.0,66,0.00,,,0.00,weatherlink.com 1.10,2013-08-10 17:04:00,
2013-08-10 13:19:00,65.6,52.0,29.91,NW,319,0.0,11.0,61,0.00,,,0.00,weatherlink.com 1.10,2013-08-10 17:19:00,
2013-08-10 13:34:00,66.0,52.0,29.91,NW,316,5.0,10.0,60,0.00,,,0.00,weatherlink.com 1.10,2013-08-10 17:34:00,
2013-08-10 13:49:00,66.3,51.0,29.91,NW,315,1.0,7.0,59,0.00,,,0.00,weatherlink.com 1.10,2013-08-10 17:49:00,
2013-08-10 14:04:00,66.8,53.0,29.91,North,351,2.0,6.0,61,0.00,,,0.00,weatherlink.com 1.10,2013-08-10 18:04:00,
2013-08-10 14:19:00,65.7,51.0,29.91,NW,321,4.0,8.0,60,0.00,,,0.00,weatherlink.com 1.10,2013-08-10 18:19:00,
2013-08-10 14:34:00,65.8,52.0,29.91,WNW,302,2.0,8.0,62,0.00,,,0.00,weatherlink.com 1.10,2013-08-10 18:34:00,
2013-08-10 14:49:00,65.6,51.0,29.91,West,278,0.0,11.0,60,0.00,,,0.00,weatherlink.com 1.10,2013-08-10 18:49:00,
2013-08-10 15:04:00,66.3,50.0,29.92,WNW,302,1.0,7.0,56,0.00,,,0.00,weatherlink.com 1.10,2013-08-10 19:04:00,
2013-08-10 15:19:00,66.6,51.0,29.92,WNW,288,3.0,4.0,58,0.00,,,0.00,weatherlink.com 1.10,2013-08-10 19:19:00,
2013-08-10 15:34:00,66.2,50.0,29.91,NW,321,4.0,6.0,56,0.00,,,0.00,weatherlink.com 1.10,2013-08-10 19:34:00,
2013-08-10 15:49:00,66.1,51.0,29.92,NNE,28,3.0,3.0,58,0.00,,,0.00,weatherlink.com 1.10,2013-08-10 19:49:00,
2013-08-10 16:04:00,65.9,50.0,29.92,ESE,121,2.0,8.0,57,0.00,,,0.00,weatherlink.com 1.10,2013-08-10 20:04:00,
2013-08-10 16:19:00,65.6,49.0,29.92,WSW,249,2.0,8.0,55,0.00,,,0.00,weatherlink.com 1.10,2013-08-10 20:19:00,
2013-08-10 16:34:00,65.4,49.0,29.93,WNW,302,3.0,7.0,56,0.00,,,0.00,weatherlink.com 1.10,2013-08-10 20:34:00,
2013-08-10 16:49:00,65.7,49.0,29.93,WNW,297,5.0,5.0,55,0.00,,,0.00,weatherlink.com 1.10,2013-08-10 20:49:00,
2013-08-10 17:04:00,65.5,49.0,29.93,NNE,22,5.0,5.0,56,0.00,,,0.00,weatherlink.com 1.10,2013-08-10 21:04:00,
2013-08-10 17:19:00,65.7,50.0,29.93,WNW,293,2.0,7.0,57,0.00,,,0.00,weatherlink.com 1.10,2013-08-10 21:19:00,
2013-08-10 17:34:00,65.5,49.0,29.93,WNW,295,0.0,5.0,56,0.00,,,0.00,weatherlink.com 1.10,2013-08-10 21:34:00,
2013-08-10 17:49:00,64.9,49.0,29.93,NW,304,2.0,8.0,56,0.00,,,0.00,weatherlink.com 1.10,2013-08-10 21:49:00,
2013-08-10 18:05:00,64.1,49.0,29.94,North,359,6.0,7.0,58,0.00,,,0.00,weatherlink.com 1.10,2013-08-10 22:05:00,
2013-08-10 18:19:00,63.7,49.0,29.94,East,91,5.0,8.0,59,0.00,,,0.00,weatherlink.com 1.10,2013-08-10 22:19:00,
2013-08-10 18:34:00,63.2,48.0,29.94,NNW,344,1.0,8.0,59,0.00,,,0.00,weatherlink.com 1.10,2013-08-10 22:34:00,
2013-08-10 18:49:00,62.9,50.0,29.95,NW,310,3.0,7.0,63,0.00,,,0.00,weatherlink.com 1.10,2013-08-10 22:49:00,
2013-08-10 19:04:00,62.4,49.0,29.95,NW,310,0.0,6.0,63,0.00,,,0.00,weatherlink.com 1.10,2013-08-10 23:04:00,
2013-08-10 19:19:00,61.8,49.0,29.95,NNE,27,1.0,5.0,63,0.00,,,0.00,weatherlink.com 1.10,2013-08-10 23:19:00,
2013-08-10 19:34:00,61.1,49.0,29.95,NE,34,4.0,5.0,64,0.00,,,0.00,weatherlink.com 1.10,2013-08-10 23:34:00,
2013-08-10 19:49:00,60.1,50.0,29.96,NW,314,0.0,2.0,69,0.00,,,0.00,weatherlink.com 1.10,2013-08-10 23:49:00,
2013-08-10 20:04:00,58.8,51.0,29.96,North,8,0.0,2.0,74,0.00,,,0.00,weatherlink.com 1.10,2013-08-11 00:04:00,
2013-08-10 20:19:00,58.5,49.0,29.97,NNW,345,1.0,3.0,71,0.00,,,0.00,weatherlink.com 1.10,2013-08-11 00:19:00,
2013-08-10 20:34:00,57.4,50.0,29.98,NNE,23,0.0,1.0,75,0.00,,,0.00,weatherlink.com 1.10,2013-08-11 00:34:00,
2013-08-10 20:49:00,56.7,50.0,29.98,North,354,0.0,1.0,77,0.00,,,0.00,weatherlink.com 1.10,2013-08-11 00:49:00,
2013-08-10 21:04:00,56.8,50.0,29.98,NNE,32,0.0,2.0,77,0.00,,,0.00,weatherlink.com 1.10,2013-08-11 01:04:00,
2013-08-10 21:19:00,56.8,50.0,29.99,NNE,15,0.0,1.0,77,0.00,,,0.00,weatherlink.com 1.10,2013-08-11 01:19:00,
2013-08-10 21:34:00,56.5,49.0,29.99,NNE,12,0.0,5.0,76,0.00,,,0.00,weatherlink.com 1.10,2013-08-11 01:34:00,
2013-08-10 21:49:00,56.5,49.0,29.99,WNW,299,1.0,4.0,76,0.00,,,0.00,weatherlink.com 1.10,2013-08-11 01:49:00,
2013-08-10 22:04:00,58.2,49.0,30.00,NW,323,2.0,4.0,71,0.00,,,0.00,weatherlink.com 1.10,2013-08-11 02:04:00,
2013-08-10 22:19:00,58.3,49.0,30.00,NNE,19,0.0,2.0,70,0.00,,,0.00,weatherlink.com 1.10,2013-08-11 02:19:00,
2013-08-10 22:34:00,58.0,50.0,30.00,NNE,19,0.0,0.0,76,0.00,,,0.00,weatherlink.com 1.10,2013-08-11 02:34:00,
2013-08-10 22:49:00,57.6,50.0,30.00,NNE,26,0.0,1.0,75,0.00,,,0.00,weatherlink.com 1.10,2013-08-11 02:49:00,
2013-08-10 23:04:00,57.2,52.0,30.00,NNE,25,0.0,0.0,83,0.00,,,0.00,weatherlink.com 1.10,2013-08-11 03:04:00,
2013-08-10 23:34:00,55.1,49.0,30.00,NNE,25,0.0,1.0,81,0.00,,,0.00,weatherlink.com 1.10,2013-08-11 03:34:00,
2013-08-10 23:50:00,53.9,49.0,30.00,NNE,25,0.0,1.0,84,0.00,,,0.00,weatherlink.com 1.10,2013-08-11 03:50:00,